WXM80 ListenWXM80 Stop

You find our weather info also at:

UK Metoffice

WeatherCloud

Weather Underground

Northeastern Weather Network

AWEKAS

Citizen Weather Observer Program (CWOP)

HAMweather, WeatherForYou, PWS Weather


Weather Underground History page Text

Daily Summary for June 9, 2017 Units:  Both    English   Metric
« Previous Day
Next Day »
Daily Weekly Monthly Yearly Custom
  High: Low: Average:
Temperature: 84.0 °F /  28.9 °C 53.2 °F /  11.8 °C 71.1 °F /  21.7 °C
Dew Point: 60.6 °F /  15.9 °C 49.4 °F /  9.7 °C 55.5 °F /  13.1 °C
Humidity: 89 % 39 % 60 %
Wind Speed: 8.3 mph /  13.4 km/h - 1.8 mph /  2.9 km/h
Wind Gust: 13.8 mph /  22.2 km/h - -
Wind:- - SSW
Pressure: 29.83 in /  1010 hPa 29.68 in /  1005 hPa -
Precipitation: 0.00 in /  0 mm    
Historical Graphs
 
 
Tabular Data for June 9, 2017
Time Temperature Dew Point Pressure Wind Wind Speed Wind Gust Humidity Rainfall Rate (Hourly)
00:03 57.0 °F /  13.9 °C 53.5 °F /  11.9 °C 29.77 in /  1008 hPa NE 0.1 mph /  0.2 km/h 1.2 mph /  1.9 km/h 88 % 0.00 in /  0 mm
00:08 57.0 °F /  13.9 °C 53.5 °F /  11.9 °C 29.77 in /  1008 hPa NE 0.2 mph /  0.3 km/h 3.5 mph /  5.6 km/h 88 % 0.00 in /  0 mm
00:13 57.0 °F /  13.9 °C 53.5 °F /  11.9 °C 29.77 in /  1008 hPa NNE 3.6 mph /  5.8 km/h 4.6 mph /  7.4 km/h 88 % 0.00 in /  0 mm
00:19 57.0 °F /  13.9 °C 53.5 °F /  11.9 °C 29.77 in /  1008 hPa NNE 2.4 mph /  3.9 km/h 4.6 mph /  7.4 km/h 88 % 0.00 in /  0 mm
00:24 57.0 °F /  13.9 °C 53.5 °F /  11.9 °C 29.76 in /  1007.7 hPa NNE 2.3 mph /  3.7 km/h 4.0 mph /  6.4 km/h 88 % 0.00 in /  0 mm
00:29 57.0 °F /  13.9 °C 53.8 °F /  12.1 °C 29.76 in /  1007.7 hPa NNE 2.8 mph /  4.5 km/h 4.6 mph /  7.4 km/h 89 % 0.00 in /  0 mm
00:34 57.0 °F /  13.9 °C 53.8 °F /  12.1 °C 29.76 in /  1007.7 hPa NNE 1.1 mph /  1.8 km/h 3.5 mph /  5.6 km/h 89 % 0.00 in /  0 mm
00:39 57.0 °F /  13.9 °C 53.8 °F /  12.1 °C 29.76 in /  1007.7 hPa NNE 1.1 mph /  1.8 km/h 3.5 mph /  5.6 km/h 89 % 0.00 in /  0 mm
00:44 57.1 °F /  13.9 °C 53.9 °F /  12.2 °C 29.76 in /  1007.7 hPa NNE 2.8 mph /  4.5 km/h 5.8 mph /  9.3 km/h 89 % 0.00 in /  0 mm
00:49 57.1 °F /  13.9 °C 53.9 °F /  12.2 °C 29.76 in /  1007.7 hPa North 3.2 mph /  5.1 km/h 6.9 mph /  11.1 km/h 89 % 0.00 in /  0 mm
00:54 57.0 °F /  13.9 °C 53.5 °F /  11.9 °C 29.76 in /  1007.7 hPa NNE 1.5 mph /  2.4 km/h 5.0 mph /  8 km/h 88 % 0.00 in /  0 mm
00:59 57.0 °F /  13.9 °C 53.2 °F /  11.8 °C 29.76 in /  1007.7 hPa North 2.2 mph /  3.5 km/h 4.6 mph /  7.4 km/h 87 % 0.00 in /  0 mm
01:04 56.9 °F /  13.8 °C 52.8 °F /  11.6 °C 29.75 in /  1007.3 hPa NNE 3.6 mph /  5.8 km/h 4.6 mph /  7.4 km/h 86 % 0.00 in /  0 mm
01:09 56.8 °F /  13.8 °C 52.7 °F /  11.5 °C 29.75 in /  1007.3 hPa NNE 4.4 mph /  7.1 km/h 5.8 mph /  9.3 km/h 86 % 0.00 in /  0 mm
01:14 56.8 °F /  13.8 °C 52.7 °F /  11.5 °C 29.75 in /  1007.3 hPa NNE 1.8 mph /  2.9 km/h 4.6 mph /  7.4 km/h 86 % 0.00 in /  0 mm
01:19 56.8 °F /  13.8 °C 52.7 °F /  11.5 °C 29.75 in /  1007.3 hPa North 1.4 mph /  2.3 km/h 3.5 mph /  5.6 km/h 86 % 0.00 in /  0 mm
01:24 56.8 °F /  13.8 °C 52.3 °F /  11.3 °C 29.75 in /  1007.3 hPa NNE 3.4 mph /  5.5 km/h 4.6 mph /  7.4 km/h 85 % 0.00 in /  0 mm
01:29 56.8 °F /  13.8 °C 52.3 °F /  11.3 °C 29.75 in /  1007.3 hPa NNE 1.4 mph /  2.3 km/h 3.5 mph /  5.6 km/h 85 % 0.00 in /  0 mm
01:34 56.6 °F /  13.7 °C 51.8 °F /  11 °C 29.75 in /  1007.3 hPa NNE 0.9 mph /  1.4 km/h 3.5 mph /  5.6 km/h 84 % 0.00 in /  0 mm
01:35 56.7 °F /  13.7 °C 51.9 °F /  11.1 °C 29.75 in /  1007.3 hPa NNE 2.0 mph /  3.2 km/h 3.5 mph /  5.6 km/h 84 % 0.00 in /  0 mm
01:40 56.5 °F /  13.6 °C 51.4 °F /  10.8 °C 29.75 in /  1007.3 hPa North 0.5 mph /  0.8 km/h 3.5 mph /  5.6 km/h 83 % 0.00 in /  0 mm
01:45 56.5 °F /  13.6 °C 51.4 °F /  10.8 °C 29.75 in /  1007.3 hPa NNE 0.7 mph /  1.1 km/h 3.5 mph /  5.6 km/h 83 % 0.00 in /  0 mm
01:50 56.4 °F /  13.6 °C 51.3 °F /  10.7 °C 29.75 in /  1007.3 hPa NNE 1.9 mph /  3.1 km/h 3.5 mph /  5.6 km/h 83 % 0.00 in /  0 mm
01:55 56.4 °F /  13.6 °C 51.3 °F /  10.7 °C 29.75 in /  1007.3 hPa NNE 0.2 mph /  0.3 km/h 1.2 mph /  1.9 km/h 83 % 0.00 in /  0 mm
02:00 56.4 °F /  13.6 °C 51.0 °F /  10.6 °C 29.75 in /  1007.3 hPa North 0.2 mph /  0.3 km/h 2.3 mph /  3.7 km/h 82 % 0.00 in /  0 mm
02:05 56.3 °F /  13.5 °C 50.9 °F /  10.5 °C 29.75 in /  1007.3 hPa North 1.1 mph /  1.8 km/h 2.3 mph /  3.7 km/h 82 % 0.00 in /  0 mm
02:10 56.3 °F /  13.5 °C 50.9 °F /  10.5 °C 29.74 in /  1007 hPa NW 0.6 mph /  1 km/h 4.0 mph /  6.4 km/h 82 % 0.00 in /  0 mm
02:15 56.3 °F /  13.5 °C 50.9 °F /  10.5 °C 29.74 in /  1007 hPa NW 1.1 mph /  1.8 km/h 3.5 mph /  5.6 km/h 82 % 0.00 in /  0 mm
02:20 56.3 °F /  13.5 °C 50.5 °F /  10.3 °C 29.73 in /  1006.7 hPa NW 0.8 mph /  1.3 km/h 2.3 mph /  3.7 km/h 81 % 0.00 in /  0 mm
02:25 56.3 °F /  13.5 °C 50.9 °F /  10.5 °C 29.73 in /  1006.7 hPa North 0.5 mph /  0.8 km/h 2.0 mph /  3.2 km/h 82 % 0.00 in /  0 mm
02:30 56.3 °F /  13.5 °C 50.9 °F /  10.5 °C 29.73 in /  1006.7 hPa North 0.9 mph /  1.4 km/h 3.5 mph /  5.6 km/h 82 % 0.00 in /  0 mm
02:35 56.2 °F /  13.4 °C 51.1 °F /  10.6 °C 29.72 in /  1006.3 hPa North 1.0 mph /  1.6 km/h 3.5 mph /  5.6 km/h 83 % 0.00 in /  0 mm
02:40 56.2 °F /  13.4 °C 51.4 °F /  10.8 °C 29.72 in /  1006.3 hPa Calm     84 % 0.00 in /  0 mm
02:45 56.1 °F /  13.4 °C 51.3 °F /  10.7 °C 29.72 in /  1006.3 hPa Calm     84 % 0.00 in /  0 mm
02:50 56.0 °F /  13.3 °C 51.2 °F /  10.7 °C 29.72 in /  1006.3 hPa North 0.1 mph /  0.2 km/h 1.2 mph /  1.9 km/h 84 % 0.00 in /  0 mm
02:55 55.9 °F /  13.3 °C 51.1 °F /  10.6 °C 29.72 in /  1006.3 hPa North 0.6 mph /  1 km/h 1.2 mph /  1.9 km/h 84 % 0.00 in /  0 mm
03:00 55.8 °F /  13.2 °C 51.0 °F /  10.6 °C 29.72 in /  1006.3 hPa North 1.2 mph /  1.9 km/h 3.5 mph /  5.6 km/h 84 % 0.00 in /  0 mm
03:05 55.7 °F /  13.2 °C 51.3 °F /  10.7 °C 29.71 in /  1006 hPa Calm     85 % 0.00 in /  0 mm
03:10 55.6 °F /  13.1 °C 51.2 °F /  10.7 °C 29.71 in /  1006 hPa Calm     85 % 0.00 in /  0 mm
03:15 55.5 °F /  13.1 °C 51.1 °F /  10.6 °C 29.71 in /  1006 hPa Calm     85 % 0.00 in /  0 mm
03:20 55.3 °F /  12.9 °C 50.9 °F /  10.5 °C 29.71 in /  1006 hPa Calm   1.2 mph /  1.9 km/h 85 % 0.00 in /  0 mm
03:21 55.3 °F /  12.9 °C 50.9 °F /  10.5 °C 29.70 in /  1005.6 hPa Calm     85 % 0.00 in /  0 mm
03:26 55.2 °F /  12.9 °C 50.8 °F /  10.4 °C 29.70 in /  1005.6 hPa Calm     85 % 0.00 in /  0 mm
03:31 55.1 °F /  12.8 °C 51.0 °F /  10.6 °C 29.70 in /  1005.6 hPa Calm     86 % 0.00 in /  0 mm
03:36 54.9 °F /  12.7 °C 50.8 °F /  10.4 °C 29.69 in /  1005.3 hPa Calm     86 % 0.00 in /  0 mm
03:41 54.8 °F /  12.7 °C 50.7 °F /  10.4 °C 29.70 in /  1005.6 hPa Calm     86 % 0.00 in /  0 mm
03:46 54.5 °F /  12.5 °C 50.4 °F /  10.2 °C 29.70 in /  1005.6 hPa Calm     86 % 0.00 in /  0 mm
03:51 54.3 °F /  12.4 °C 50.2 °F /  10.1 °C 29.69 in /  1005.3 hPa Calm     86 % 0.00 in /  0 mm
03:56 54.0 °F /  12.2 °C 50.2 °F /  10.1 °C 29.69 in /  1005.3 hPa North 0.1 mph /  0.2 km/h   87 % 0.00 in /  0 mm
04:01 53.8 °F /  12.1 °C 50.0 °F /  10 °C 29.69 in /  1005.3 hPa Calm     87 % 0.00 in /  0 mm
04:06 53.5 °F /  11.9 °C 49.7 °F /  9.8 °C 29.69 in /  1005.3 hPa North 0.1 mph /  0.2 km/h   87 % 0.00 in /  0 mm
04:11 53.2 °F /  11.8 °C 49.4 °F /  9.7 °C 29.69 in /  1005.3 hPa Calm     87 % 0.00 in /  0 mm
04:12 53.2 °F /  11.8 °C 49.4 °F /  9.7 °C 29.69 in /  1005.3 hPa Calm     87 % 0.00 in /  0 mm
09:33 63.8 °F /  17.7 °C 54.6 °F /  12.6 °C 29.71 in /  1006 hPa SW 1.3 mph /  2.1 km/h 8.1 mph /  13 km/h 72 % 0.00 in /  0 mm
09:35 63.9 °F /  17.7 °C 54.7 °F /  12.6 °C 29.71 in /  1006 hPa WSW 3.2 mph /  5.1 km/h 5.0 mph /  8 km/h 72 % 0.00 in /  0 mm
09:40 64.2 °F /  17.9 °C 55.7 °F /  13.2 °C 29.71 in /  1006 hPa West 2.8 mph /  4.5 km/h 7.0 mph /  11.3 km/h 74 % 0.00 in /  0 mm
09:45 64.7 °F /  18.2 °C 55.5 °F /  13.1 °C 29.71 in /  1006 hPa WSW 2.9 mph /  4.7 km/h 4.6 mph /  7.4 km/h 72 % 0.00 in /  0 mm
09:50 65.1 °F /  18.4 °C 55.8 °F /  13.2 °C 29.71 in /  1006 hPa West 0.1 mph /  0.2 km/h 1.2 mph /  1.9 km/h 72 % 0.00 in /  0 mm
09:55 65.6 °F /  18.7 °C 55.9 °F /  13.3 °C 29.71 in /  1006 hPa WSW 3.7 mph /  6 km/h 6.9 mph /  11.1 km/h 71 % 0.00 in /  0 mm
10:00 66.2 °F /  19 °C 55.7 °F /  13.2 °C 29.71 in /  1006 hPa West 0.6 mph /  1 km/h 4.6 mph /  7.4 km/h 69 % 0.00 in /  0 mm
10:05 66.7 °F /  19.3 °C 56.6 °F /  13.7 °C 29.71 in /  1006 hPa WSW 1.1 mph /  1.8 km/h 3.5 mph /  5.6 km/h 70 % 0.00 in /  0 mm
10:10 67.1 °F /  19.5 °C 56.6 °F /  13.7 °C 29.71 in /  1006 hPa SW 1.1 mph /  1.8 km/h 5.0 mph /  8 km/h 69 % 0.00 in /  0 mm
10:15 67.6 °F /  19.8 °C 56.7 °F /  13.7 °C 29.71 in /  1006 hPa WSW 4.8 mph /  7.7 km/h 6.0 mph /  9.7 km/h 68 % 0.00 in /  0 mm
10:20 68.0 °F /  20 °C 56.6 °F /  13.7 °C 29.71 in /  1006 hPa NW 3.3 mph /  5.3 km/h 5.8 mph /  9.3 km/h 67 % 0.00 in /  0 mm
10:25 68.4 °F /  20.2 °C 57.0 °F /  13.9 °C 29.71 in /  1006 hPa SW 4.0 mph /  6.4 km/h 6.0 mph /  9.7 km/h 67 % 0.00 in /  0 mm
10:30 69.1 °F /  20.6 °C 57.7 °F /  14.3 °C 29.72 in /  1006.3 hPa NW 2.8 mph /  4.5 km/h 5.8 mph /  9.3 km/h 67 % 0.00 in /  0 mm
10:35 69.8 °F /  21 °C 58.8 °F /  14.9 °C 29.71 in /  1006 hPa NNW 1.5 mph /  2.4 km/h 3.5 mph /  5.6 km/h 68 % 0.00 in /  0 mm
10:40 70.3 °F /  21.3 °C 58.0 °F /  14.4 °C 29.72 in /  1006.3 hPa NW 1.5 mph /  2.4 km/h 3.5 mph /  5.6 km/h 65 % 0.00 in /  0 mm
10:45 70.8 °F /  21.6 °C 57.1 °F /  13.9 °C 29.72 in /  1006.3 hPa WNW 3.0 mph /  4.8 km/h 5.0 mph /  8 km/h 62 % 0.00 in /  0 mm
10:50 71.4 °F /  21.9 °C 55.9 °F /  13.3 °C 29.72 in /  1006.3 hPa NNW 5.1 mph /  8.2 km/h 8.0 mph /  12.9 km/h 58 % 0.00 in /  0 mm
10:57 72.0 °F /  22.2 °C 57.4 °F /  14.1 °C 29.72 in /  1006.3 hPa WSW 4.4 mph /  7.1 km/h 8.0 mph /  12.9 km/h 60 % 0.00 in /  0 mm
11:02 72.4 °F /  22.4 °C 56.3 °F /  13.5 °C 29.72 in /  1006.3 hPa SW 5.2 mph /  8.4 km/h 8.1 mph /  13 km/h 57 % 0.00 in /  0 mm
11:07 72.9 °F /  22.7 °C 57.3 °F /  14.1 °C 29.72 in /  1006.3 hPa SW 2.4 mph /  3.9 km/h 7.0 mph /  11.3 km/h 58 % 0.00 in /  0 mm
11:12 73.5 °F /  23.1 °C 57.3 °F /  14.1 °C 29.71 in /  1006 hPa WSW 4.1 mph /  6.6 km/h 6.9 mph /  11.1 km/h 57 % 0.00 in /  0 mm
11:17 73.8 °F /  23.2 °C 58.6 °F /  14.8 °C 29.71 in /  1006 hPa WNW 1.5 mph /  2.4 km/h 4.6 mph /  7.4 km/h 59 % 0.00 in /  0 mm
11:22 74.1 °F /  23.4 °C 56.4 °F /  13.6 °C 29.71 in /  1006 hPa WSW 3.6 mph /  5.8 km/h 5.8 mph /  9.3 km/h 54 % 0.00 in /  0 mm
11:27 74.2 °F /  23.4 °C 58.5 °F /  14.7 °C 29.71 in /  1006 hPa West 3.7 mph /  6 km/h 6.9 mph /  11.1 km/h 58 % 0.00 in /  0 mm
11:32 74.3 °F /  23.5 °C 57.1 °F /  13.9 °C 29.71 in /  1006 hPa West 1.6 mph /  2.6 km/h 3.5 mph /  5.6 km/h 55 % 0.00 in /  0 mm
11:37 74.5 °F /  23.6 °C 57.3 °F /  14.1 °C 29.71 in /  1006 hPa SSW 3.5 mph /  5.6 km/h 11.5 mph /  18.5 km/h 55 % 0.00 in /  0 mm
11:42 74.8 °F /  23.8 °C 57.5 °F /  14.2 °C 29.71 in /  1006 hPa SSW 3.2 mph /  5.1 km/h 6.9 mph /  11.1 km/h 55 % 0.00 in /  0 mm
11:52 75.1 °F /  23.9 °C 58.3 °F /  14.6 °C 29.72 in /  1006.3 hPa WSW 2.4 mph /  3.9 km/h 6.9 mph /  11.1 km/h 56 % 0.00 in /  0 mm
11:57 75.4 °F /  24.1 °C 59.1 °F /  15.1 °C 29.71 in /  1006 hPa SW 3.7 mph /  6 km/h 4.0 mph /  6.4 km/h 57 % 0.00 in /  0 mm
12:02 75.8 °F /  24.3 °C 58.5 °F /  14.7 °C 29.71 in /  1006 hPa SW 5.4 mph /  8.7 km/h 9.0 mph /  14.5 km/h 55 % 0.00 in /  0 mm
12:07 76.1 °F /  24.5 °C 59.3 °F /  15.2 °C 29.71 in /  1006 hPa West 3.6 mph /  5.8 km/h 4.6 mph /  7.4 km/h 56 % 0.00 in /  0 mm
12:12 76.5 °F /  24.7 °C 59.1 °F /  15.1 °C 29.71 in /  1006 hPa WSW 2.7 mph /  4.3 km/h 5.0 mph /  8 km/h 55 % 0.00 in /  0 mm
12:17 76.9 °F /  24.9 °C 59.0 °F /  15 °C 29.71 in /  1006 hPa SW 2.7 mph /  4.3 km/h 6.0 mph /  9.7 km/h 54 % 0.00 in /  0 mm
12:23 77.5 °F /  25.3 °C 60.6 °F /  15.9 °C 29.71 in /  1006 hPa WSW 1.7 mph /  2.7 km/h 3.5 mph /  5.6 km/h 56 % 0.00 in /  0 mm
12:28 78.1 °F /  25.6 °C 59.6 °F /  15.3 °C 29.71 in /  1006 hPa WSW 3.1 mph /  5 km/h 6.9 mph /  11.1 km/h 53 % 0.00 in /  0 mm
12:33 78.5 °F /  25.8 °C 59.4 °F /  15.2 °C 29.70 in /  1005.6 hPa SW 3.8 mph /  6.1 km/h 8.1 mph /  13 km/h 52 % 0.00 in /  0 mm
12:38 78.7 °F /  25.9 °C 58.5 °F /  14.7 °C 29.71 in /  1006 hPa WSW 2.8 mph /  4.5 km/h 4.6 mph /  7.4 km/h 50 % 0.00 in /  0 mm
12:43 78.7 °F /  25.9 °C 59.0 °F /  15 °C 29.70 in /  1005.6 hPa SW 4.0 mph /  6.4 km/h 6.9 mph /  11.1 km/h 51 % 0.00 in /  0 mm
12:48 78.9 °F /  26.1 °C 58.1 °F /  14.5 °C 29.70 in /  1005.6 hPa SW 3.8 mph /  6.1 km/h 4.6 mph /  7.4 km/h 49 % 0.00 in /  0 mm
12:53 79.3 °F /  26.3 °C 59.0 °F /  15 °C 29.70 in /  1005.6 hPa WSW 3.6 mph /  5.8 km/h 6.9 mph /  11.1 km/h 50 % 0.00 in /  0 mm
12:58 79.6 °F /  26.4 °C 59.9 °F /  15.5 °C 29.69 in /  1005.3 hPa NW 4.1 mph /  6.6 km/h 6.9 mph /  11.1 km/h 51 % 0.00 in /  0 mm
13:03 79.7 °F /  26.5 °C 57.7 °F /  14.3 °C 29.69 in /  1005.3 hPa West 2.9 mph /  4.7 km/h 9.2 mph /  14.8 km/h 47 % 0.00 in /  0 mm
13:08 80.0 °F /  26.7 °C 59.1 °F /  15.1 °C 29.69 in /  1005.3 hPa SW 2.8 mph /  4.5 km/h 4.0 mph /  6.4 km/h 49 % 0.00 in /  0 mm
13:13 80.3 °F /  26.8 °C 59.4 °F /  15.2 °C 29.69 in /  1005.3 hPa WSW 4.4 mph /  7.1 km/h 7.0 mph /  11.3 km/h 49 % 0.00 in /  0 mm
13:18 80.6 °F /  27 °C 59.7 °F /  15.4 °C 29.69 in /  1005.3 hPa SSW 3.8 mph /  6.1 km/h 9.2 mph /  14.8 km/h 49 % 0.00 in /  0 mm
13:23 81.1 °F /  27.3 °C 60.1 °F /  15.6 °C 29.69 in /  1005.3 hPa WSW 7.2 mph /  11.6 km/h 11.5 mph /  18.5 km/h 49 % 0.00 in /  0 mm
13:28 81.3 °F /  27.4 °C 58.5 °F /  14.7 °C 29.69 in /  1005.3 hPa WSW 7.0 mph /  11.3 km/h 9.2 mph /  14.8 km/h 46 % 0.00 in /  0 mm
13:33 81.4 °F /  27.4 °C 59.8 °F /  15.4 °C 29.68 in /  1005 hPa SW 3.3 mph /  5.3 km/h 6.9 mph /  11.1 km/h 48 % 0.00 in /  0 mm
13:39 81.6 °F /  27.6 °C 58.8 °F /  14.9 °C 29.68 in /  1005 hPa WSW 3.1 mph /  5 km/h 6.9 mph /  11.1 km/h 46 % 0.00 in /  0 mm
13:44 81.8 °F /  27.7 °C 60.2 °F /  15.7 °C 29.68 in /  1005 hPa SW 4.6 mph /  7.4 km/h 8.1 mph /  13 km/h 48 % 0.00 in /  0 mm
13:49 82.0 °F /  27.8 °C 58.6 °F /  14.8 °C 29.68 in /  1005 hPa SW 6.4 mph /  10.3 km/h 10.4 mph /  16.7 km/h 45 % 0.00 in /  0 mm
13:54 82.1 °F /  27.8 °C 59.9 °F /  15.5 °C 29.68 in /  1005 hPa WSW 1.7 mph /  2.7 km/h 9.2 mph /  14.8 km/h 47 % 0.00 in /  0 mm
14:00 82.4 °F /  28 °C 60.1 °F /  15.6 °C 29.68 in /  1005 hPa WSW 3.4 mph /  5.5 km/h 3.5 mph /  5.6 km/h 47 % 0.00 in /  0 mm
14:05 82.8 °F /  28.2 °C 58.7 °F /  14.8 °C 29.68 in /  1005 hPa SW 5.8 mph /  9.3 km/h 11.5 mph /  18.5 km/h 44 % 0.00 in /  0 mm
14:10 83.0 °F /  28.3 °C 59.5 °F /  15.3 °C 29.68 in /  1005 hPa WSW 5.2 mph /  8.4 km/h 6.0 mph /  9.7 km/h 45 % 0.00 in /  0 mm
14:15 83.2 °F /  28.4 °C 59.6 °F /  15.3 °C 29.68 in /  1005 hPa WNW 2.0 mph /  3.2 km/h 6.9 mph /  11.1 km/h 45 % 0.00 in /  0 mm
14:20 83.5 °F /  28.6 °C 58.0 °F /  14.4 °C 29.68 in /  1005 hPa West 3.1 mph /  5 km/h 11.5 mph /  18.5 km/h 42 % 0.00 in /  0 mm
14:25 83.6 °F /  28.7 °C 56.7 °F /  13.7 °C 29.68 in /  1005 hPa NW 7.0 mph /  11.3 km/h 11.5 mph /  18.5 km/h 40 % 0.00 in /  0 mm
14:30 83.9 °F /  28.8 °C 57.0 °F /  13.9 °C 29.68 in /  1005 hPa WNW 8.3 mph /  13.4 km/h 13.8 mph /  22.2 km/h 40 % 0.00 in /  0 mm
14:35 83.9 °F /  28.8 °C 57.0 °F /  13.9 °C 29.68 in /  1005 hPa WSW 6.4 mph /  10.3 km/h 11.5 mph /  18.5 km/h 40 % 0.00 in /  0 mm
14:40 84.0 °F /  28.9 °C 57.1 °F /  13.9 °C 29.68 in /  1005 hPa WSW 7.2 mph /  11.6 km/h 12.7 mph /  20.4 km/h 40 % 0.00 in /  0 mm
14:50 84.0 °F /  28.9 °C 56.4 °F /  13.6 °C 29.69 in /  1005.3 hPa North 7.1 mph /  11.4 km/h 11.5 mph /  18.5 km/h 39 % 0.00 in /  0 mm
14:55 83.6 °F /  28.7 °C 56.7 °F /  13.7 °C 29.69 in /  1005.3 hPa NW 3.5 mph /  5.6 km/h 10.4 mph /  16.7 km/h 40 % 0.00 in /  0 mm
15:00 83.4 °F /  28.6 °C 57.2 °F /  14 °C 29.69 in /  1005.3 hPa SW 2.6 mph /  4.2 km/h 5.8 mph /  9.3 km/h 41 % 0.00 in /  0 mm
15:05 83.1 °F /  28.4 °C 56.3 °F /  13.5 °C 29.70 in /  1005.6 hPa West 5.6 mph /  9 km/h 11.0 mph /  17.7 km/h 40 % 0.00 in /  0 mm
15:10 82.7 °F /  28.2 °C 58.6 °F /  14.8 °C 29.70 in /  1005.6 hPa WSW 2.7 mph /  4.3 km/h 9.2 mph /  14.8 km/h 44 % 0.00 in /  0 mm
15:15 82.4 °F /  28 °C 59.5 °F /  15.3 °C 29.70 in /  1005.6 hPa NW 3.8 mph /  6.1 km/h 8.0 mph /  12.9 km/h 46 % 0.00 in /  0 mm
15:20 82.2 °F /  27.9 °C 58.7 °F /  14.8 °C 29.70 in /  1005.6 hPa WNW 4.4 mph /  7.1 km/h 9.2 mph /  14.8 km/h 45 % 0.00 in /  0 mm
15:25 81.9 °F /  27.7 °C 57.8 °F /  14.3 °C 29.70 in /  1005.6 hPa NW 5.8 mph /  9.3 km/h 9.2 mph /  14.8 km/h 44 % 0.00 in /  0 mm
15:30 82.0 °F /  27.8 °C 59.8 °F /  15.4 °C 29.70 in /  1005.6 hPa NW 1.1 mph /  1.8 km/h 4.6 mph /  7.4 km/h 47 % 0.00 in /  0 mm
15:31 82.0 °F /  27.8 °C 59.8 °F /  15.4 °C 29.70 in /  1005.6 hPa WNW 1.0 mph /  1.6 km/h 4.6 mph /  7.4 km/h 47 % 0.00 in /  0 mm
15:36 81.9 °F /  27.7 °C 58.5 °F /  14.7 °C 29.70 in /  1005.6 hPa NNE 3.4 mph /  5.5 km/h 6.9 mph /  11.1 km/h 45 % 0.00 in /  0 mm
15:41 81.6 °F /  27.6 °C 57.6 °F /  14.2 °C 29.70 in /  1005.6 hPa West 5.4 mph /  8.7 km/h 9.2 mph /  14.8 km/h 44 % 0.00 in /  0 mm
15:46 81.4 °F /  27.4 °C 58.6 °F /  14.8 °C 29.70 in /  1005.6 hPa West 4.3 mph /  6.9 km/h 11.5 mph /  18.5 km/h 46 % 0.00 in /  0 mm
15:51 81.1 °F /  27.3 °C 57.7 °F /  14.3 °C 29.70 in /  1005.6 hPa WNW 3.4 mph /  5.5 km/h 7.0 mph /  11.3 km/h 45 % 0.00 in /  0 mm
15:56 80.9 °F /  27.2 °C 55.0 °F /  12.8 °C 29.70 in /  1005.6 hPa ENE 6.7 mph /  10.8 km/h 11.5 mph /  18.5 km/h 41 % 0.00 in /  0 mm
16:01 80.8 °F /  27.1 °C 58.1 °F /  14.5 °C 29.70 in /  1005.6 hPa NW 4.8 mph /  7.7 km/h 8.0 mph /  12.9 km/h 46 % 0.00 in /  0 mm
16:06 80.7 °F /  27.1 °C 56.8 °F /  13.8 °C 29.70 in /  1005.6 hPa WNW 1.7 mph /  2.7 km/h 3.5 mph /  5.6 km/h 44 % 0.00 in /  0 mm
16:11 80.7 °F /  27.1 °C 56.8 °F /  13.8 °C 29.70 in /  1005.6 hPa NNE 1.4 mph /  2.3 km/h 5.8 mph /  9.3 km/h 44 % 0.00 in /  0 mm
16:16 80.8 °F /  27.1 °C 58.1 °F /  14.5 °C 29.70 in /  1005.6 hPa WNW 2.6 mph /  4.2 km/h 4.6 mph /  7.4 km/h 46 % 0.00 in /  0 mm
16:21 80.9 °F /  27.2 °C 56.3 °F /  13.5 °C 29.70 in /  1005.6 hPa NW 2.3 mph /  3.7 km/h 3.5 mph /  5.6 km/h 43 % 0.00 in /  0 mm
16:26 80.9 °F /  27.2 °C 56.9 °F /  13.8 °C 29.70 in /  1005.6 hPa WNW 1.8 mph /  2.9 km/h 4.6 mph /  7.4 km/h 44 % 0.00 in /  0 mm
16:31 81.2 °F /  27.3 °C 57.2 °F /  14 °C 29.70 in /  1005.6 hPa NNE 1.5 mph /  2.4 km/h 4.6 mph /  7.4 km/h 44 % 0.00 in /  0 mm
16:36 81.2 °F /  27.3 °C 57.8 °F /  14.3 °C 29.70 in /  1005.6 hPa NNW 1.3 mph /  2.1 km/h 3.5 mph /  5.6 km/h 45 % 0.00 in /  0 mm
16:41 81.3 °F /  27.4 °C 57.3 °F /  14.1 °C 29.70 in /  1005.6 hPa North 1.8 mph /  2.9 km/h 6.9 mph /  11.1 km/h 44 % 0.00 in /  0 mm
16:46 81.3 °F /  27.4 °C 57.3 °F /  14.1 °C 29.70 in /  1005.6 hPa NW 1.7 mph /  2.7 km/h 3.5 mph /  5.6 km/h 44 % 0.00 in /  0 mm
16:51 81.2 °F /  27.3 °C 56.6 °F /  13.7 °C 29.70 in /  1005.6 hPa NNE 0.7 mph /  1.1 km/h 2.3 mph /  3.7 km/h 43 % 0.00 in /  0 mm
16:56 81.2 °F /  27.3 °C 55.3 °F /  12.9 °C 29.70 in /  1005.6 hPa WNW 0.9 mph /  1.4 km/h 4.0 mph /  6.4 km/h 41 % 0.00 in /  0 mm
17:01 81.2 °F /  27.3 °C 55.3 °F /  12.9 °C 29.70 in /  1005.6 hPa WNW 1.0 mph /  1.6 km/h 3.5 mph /  5.6 km/h 41 % 0.00 in /  0 mm
17:06 81.2 °F /  27.3 °C 57.2 °F /  14 °C 29.70 in /  1005.6 hPa NNW 0.3 mph /  0.5 km/h 2.3 mph /  3.7 km/h 44 % 0.00 in /  0 mm
17:11 81.1 °F /  27.3 °C 56.5 °F /  13.6 °C 29.70 in /  1005.6 hPa NW 1.1 mph /  1.8 km/h 3.5 mph /  5.6 km/h 43 % 0.00 in /  0 mm
17:16 81.0 °F /  27.2 °C 55.7 °F /  13.2 °C 29.69 in /  1005.3 hPa NW 1.4 mph /  2.3 km/h 3.5 mph /  5.6 km/h 42 % 0.00 in /  0 mm
17:21 80.9 °F /  27.2 °C 55.0 °F /  12.8 °C 29.69 in /  1005.3 hPa NW 0.9 mph /  1.4 km/h 2.3 mph /  3.7 km/h 41 % 0.00 in /  0 mm
17:26 81.0 °F /  27.2 °C 55.1 °F /  12.8 °C 29.69 in /  1005.3 hPa Calm   2.3 mph /  3.7 km/h 41 % 0.00 in /  0 mm
17:31 81.1 °F /  27.3 °C 55.8 °F /  13.2 °C 29.70 in /  1005.6 hPa WSW 1.7 mph /  2.7 km/h 5.8 mph /  9.3 km/h 42 % 0.00 in /  0 mm
17:36 81.1 °F /  27.3 °C 56.5 °F /  13.6 °C 29.70 in /  1005.6 hPa Calm   1.2 mph /  1.9 km/h 43 % 0.00 in /  0 mm
17:41 81.0 °F /  27.2 °C 55.7 °F /  13.2 °C 29.69 in /  1005.3 hPa SW 3.1 mph /  5 km/h 4.0 mph /  6.4 km/h 42 % 0.00 in /  0 mm
17:46 80.9 °F /  27.2 °C 55.0 °F /  12.8 °C 29.70 in /  1005.6 hPa SW 1.3 mph /  2.1 km/h 4.0 mph /  6.4 km/h 41 % 0.00 in /  0 mm
17:51 80.9 °F /  27.2 °C 55.7 °F /  13.2 °C 29.70 in /  1005.6 hPa SW 0.8 mph /  1.3 km/h 3.5 mph /  5.6 km/h 42 % 0.00 in /  0 mm
17:56 80.9 °F /  27.2 °C 55.7 °F /  13.2 °C 29.70 in /  1005.6 hPa SW 2.0 mph /  3.2 km/h 5.0 mph /  8 km/h 42 % 0.00 in /  0 mm
18:01 80.7 °F /  27.1 °C 54.8 °F /  12.7 °C 29.70 in /  1005.6 hPa SW 2.0 mph /  3.2 km/h 3.5 mph /  5.6 km/h 41 % 0.00 in /  0 mm
18:06 80.5 °F /  26.9 °C 55.9 °F /  13.3 °C 29.70 in /  1005.6 hPa WSW 1.4 mph /  2.3 km/h 6.9 mph /  11.1 km/h 43 % 0.00 in /  0 mm
18:11 80.4 °F /  26.9 °C 55.9 °F /  13.3 °C 29.70 in /  1005.6 hPa Calm   1.2 mph /  1.9 km/h 43 % 0.00 in /  0 mm
18:16 80.2 °F /  26.8 °C 55.7 °F /  13.2 °C 29.70 in /  1005.6 hPa West 0.4 mph /  0.6 km/h 3.5 mph /  5.6 km/h 43 % 0.00 in /  0 mm
18:21 80.1 °F /  26.7 °C 56.2 °F /  13.4 °C 29.70 in /  1005.6 hPa West 0.8 mph /  1.3 km/h 3.5 mph /  5.6 km/h 44 % 0.00 in /  0 mm
18:26 80.0 °F /  26.7 °C 56.1 °F /  13.4 °C 29.70 in /  1005.6 hPa Calm   1.0 mph /  1.6 km/h 44 % 0.00 in /  0 mm
18:31 79.9 °F /  26.6 °C 55.4 °F /  13 °C 29.70 in /  1005.6 hPa WSW 1.6 mph /  2.6 km/h 3.5 mph /  5.6 km/h 43 % 0.00 in /  0 mm
18:36 79.8 °F /  26.6 °C 55.9 °F /  13.3 °C 29.71 in /  1006 hPa Calm   1.2 mph /  1.9 km/h 44 % 0.00 in /  0 mm
18:41 79.7 °F /  26.5 °C 56.5 °F /  13.6 °C 29.71 in /  1006 hPa WSW 0.8 mph /  1.3 km/h 2.0 mph /  3.2 km/h 45 % 0.00 in /  0 mm
18:46 79.5 °F /  26.4 °C 55.7 °F /  13.2 °C 29.71 in /  1006 hPa WSW 0.8 mph /  1.3 km/h 2.3 mph /  3.7 km/h 44 % 0.00 in /  0 mm
18:51 79.4 °F /  26.3 °C 56.2 °F /  13.4 °C 29.72 in /  1006.3 hPa WSW 0.7 mph /  1.1 km/h 3.5 mph /  5.6 km/h 45 % 0.00 in /  0 mm
18:57 79.2 °F /  26.2 °C 56.0 °F /  13.3 °C 29.72 in /  1006.3 hPa SW 1.1 mph /  1.8 km/h 3.5 mph /  5.6 km/h 45 % 0.00 in /  0 mm
19:02 79.1 °F /  26.2 °C 55.9 °F /  13.3 °C 29.72 in /  1006.3 hPa SW 0.9 mph /  1.4 km/h 2.3 mph /  3.7 km/h 45 % 0.00 in /  0 mm
19:07 78.9 °F /  26.1 °C 55.1 °F /  12.8 °C 29.72 in /  1006.3 hPa WSW 1.1 mph /  1.8 km/h 2.3 mph /  3.7 km/h 44 % 0.00 in /  0 mm
19:12 78.8 °F /  26 °C 55.0 °F /  12.8 °C 29.72 in /  1006.3 hPa WSW 2.4 mph /  3.9 km/h 3.5 mph /  5.6 km/h 44 % 0.00 in /  0 mm
19:17 78.6 °F /  25.9 °C 55.5 °F /  13.1 °C 29.72 in /  1006.3 hPa Calm   1.2 mph /  1.9 km/h 45 % 0.00 in /  0 mm
19:22 78.5 °F /  25.8 °C 55.4 °F /  13 °C 29.72 in /  1006.3 hPa Calm   2.3 mph /  3.7 km/h 45 % 0.00 in /  0 mm
19:27 78.3 °F /  25.7 °C 55.8 °F /  13.2 °C 29.73 in /  1006.7 hPa SW 0.6 mph /  1 km/h 3.5 mph /  5.6 km/h 46 % 0.00 in /  0 mm
19:32 78.2 °F /  25.7 °C 55.7 °F /  13.2 °C 29.73 in /  1006.7 hPa SW 1.7 mph /  2.7 km/h 3.5 mph /  5.6 km/h 46 % 0.00 in /  0 mm
19:37 78.0 °F /  25.6 °C 55.5 °F /  13.1 °C 29.74 in /  1007 hPa SW 1.5 mph /  2.4 km/h 3.5 mph /  5.6 km/h 46 % 0.00 in /  0 mm
19:42 77.8 °F /  25.4 °C 55.4 °F /  13 °C 29.74 in /  1007 hPa SW 1.4 mph /  2.3 km/h 3.5 mph /  5.6 km/h 46 % 0.00 in /  0 mm
19:47 77.5 °F /  25.3 °C 55.1 °F /  12.8 °C 29.74 in /  1007 hPa SW 0.5 mph /  0.8 km/h 2.3 mph /  3.7 km/h 46 % 0.00 in /  0 mm
19:52 77.3 °F /  25.2 °C 54.9 °F /  12.7 °C 29.74 in /  1007 hPa SW 0.3 mph /  0.5 km/h 2.3 mph /  3.7 km/h 46 % 0.00 in /  0 mm
19:57 76.9 °F /  24.9 °C 55.1 °F /  12.8 °C 29.74 in /  1007 hPa SW 0.3 mph /  0.5 km/h 1.2 mph /  1.9 km/h 47 % 0.00 in /  0 mm
20:02 76.6 °F /  24.8 °C 55.4 °F /  13 °C 29.74 in /  1007 hPa SW 0.4 mph /  0.6 km/h 2.3 mph /  3.7 km/h 48 % 0.00 in /  0 mm
20:07 76.3 °F /  24.6 °C 55.2 °F /  12.9 °C 29.74 in /  1007 hPa SW 1.2 mph /  1.9 km/h 3.5 mph /  5.6 km/h 48 % 0.00 in /  0 mm
20:12 76.0 °F /  24.4 °C 55.5 °F /  13.1 °C 29.74 in /  1007 hPa Calm     49 % 0.00 in /  0 mm
20:17 75.5 °F /  24.2 °C 55.6 °F /  13.1 °C 29.75 in /  1007.3 hPa Calm     50 % 0.00 in /  0 mm
20:22 75.1 °F /  23.9 °C 55.7 °F /  13.2 °C 29.75 in /  1007.3 hPa Calm   1.2 mph /  1.9 km/h 51 % 0.00 in /  0 mm
20:27 74.7 °F /  23.7 °C 56.4 °F /  13.6 °C 29.75 in /  1007.3 hPa Calm     53 % 0.00 in /  0 mm
20:32 74.2 °F /  23.4 °C 56.5 °F /  13.6 °C 29.75 in /  1007.3 hPa Calm     54 % 0.00 in /  0 mm
20:37 73.8 °F /  23.2 °C 56.6 °F /  13.7 °C 29.75 in /  1007.3 hPa Calm     55 % 0.00 in /  0 mm
20:42 73.3 °F /  22.9 °C 56.7 °F /  13.7 °C 29.75 in /  1007.3 hPa Calm     56 % 0.00 in /  0 mm
20:47 72.9 °F /  22.7 °C 56.3 °F /  13.5 °C 29.75 in /  1007.3 hPa Calm     56 % 0.00 in /  0 mm
20:57 71.9 °F /  22.2 °C 55.8 °F /  13.2 °C 29.76 in /  1007.7 hPa Calm   1.2 mph /  1.9 km/h 57 % 0.00 in /  0 mm
21:02 71.4 °F /  21.9 °C 55.4 °F /  13 °C 29.76 in /  1007.7 hPa Calm     57 % 0.00 in /  0 mm
21:05 71.2 °F /  21.8 °C 55.2 °F /  12.9 °C 29.76 in /  1007.7 hPa SW 0.2 mph /  0.3 km/h 1.2 mph /  1.9 km/h 57 % 0.00 in /  0 mm
21:10 70.9 °F /  21.6 °C 55.4 °F /  13 °C 29.77 in /  1008 hPa Calm     58 % 0.00 in /  0 mm
21:15 70.6 °F /  21.4 °C 55.6 °F /  13.1 °C 29.77 in /  1008 hPa Calm   1.2 mph /  1.9 km/h 59 % 0.00 in /  0 mm
21:20 70.4 °F /  21.3 °C 55.8 °F /  13.2 °C 29.77 in /  1008 hPa Calm   1.2 mph /  1.9 km/h 60 % 0.00 in /  0 mm
21:25 70.2 °F /  21.2 °C 55.7 °F /  13.2 °C 29.78 in /  1008.4 hPa SW 0.1 mph /  0.2 km/h 1.2 mph /  1.9 km/h 60 % 0.00 in /  0 mm
21:31 69.9 °F /  21.1 °C 54.9 °F /  12.7 °C 29.78 in /  1008.4 hPa Calm     59 % 0.00 in /  0 mm
21:36 69.8 °F /  21 °C 54.8 °F /  12.7 °C 29.78 in /  1008.4 hPa Calm   1.0 mph /  1.6 km/h 59 % 0.00 in /  0 mm
21:41 69.6 °F /  20.9 °C 55.6 °F /  13.1 °C 29.78 in /  1008.4 hPa Calm   1.0 mph /  1.6 km/h 61 % 0.00 in /  0 mm
21:46 69.4 °F /  20.8 °C 55.8 °F /  13.2 °C 29.79 in /  1008.7 hPa Calm     62 % 0.00 in /  0 mm
21:51 69.3 °F /  20.7 °C 55.7 °F /  13.2 °C 29.79 in /  1008.7 hPa Calm   1.0 mph /  1.6 km/h 62 % 0.00 in /  0 mm
21:56 69.1 °F /  20.6 °C 55.5 °F /  13.1 °C 29.79 in /  1008.7 hPa Calm   1.0 mph /  1.6 km/h 62 % 0.00 in /  0 mm
22:01 68.9 °F /  20.5 °C 55.3 °F /  12.9 °C 29.80 in /  1009 hPa Calm     62 % 0.00 in /  0 mm
22:06 68.8 °F /  20.4 °C 55.2 °F /  12.9 °C 29.80 in /  1009 hPa Calm     62 % 0.00 in /  0 mm
22:11 68.6 °F /  20.3 °C 55.5 °F /  13.1 °C 29.80 in /  1009 hPa Calm     63 % 0.00 in /  0 mm
22:16 68.5 °F /  20.3 °C 55.8 °F /  13.2 °C 29.80 in /  1009 hPa Calm     64 % 0.00 in /  0 mm
22:21 68.3 °F /  20.2 °C 56.1 °F /  13.4 °C 29.81 in /  1009.4 hPa Calm     65 % 0.00 in /  0 mm
22:26 68.1 °F /  20.1 °C 55.9 °F /  13.3 °C 29.81 in /  1009.4 hPa Calm     65 % 0.00 in /  0 mm
22:31 67.9 °F /  19.9 °C 55.7 °F /  13.2 °C 29.81 in /  1009.4 hPa Calm     65 % 0.00 in /  0 mm
22:36 67.7 °F /  19.8 °C 55.5 °F /  13.1 °C 29.81 in /  1009.4 hPa Calm     65 % 0.00 in /  0 mm
22:41 67.5 °F /  19.7 °C 55.3 °F /  12.9 °C 29.81 in /  1009.4 hPa Calm     65 % 0.00 in /  0 mm
22:46 67.3 °F /  19.6 °C 55.5 °F /  13.1 °C 29.82 in /  1009.7 hPa Calm     66 % 0.00 in /  0 mm
22:51 67.2 °F /  19.6 °C 55.5 °F /  13.1 °C 29.82 in /  1009.7 hPa Calm     66 % 0.00 in /  0 mm
22:56 67.0 °F /  19.4 °C 55.3 °F /  12.9 °C 29.82 in /  1009.7 hPa Calm     66 % 0.00 in /  0 mm
23:06 66.7 °F /  19.3 °C 55.4 °F /  13 °C 29.82 in /  1009.7 hPa Calm     67 % 0.00 in /  0 mm
23:11 66.6 °F /  19.2 °C 55.3 °F /  12.9 °C 29.83 in /  1010 hPa Calm     67 % 0.00 in /  0 mm
23:16 66.4 °F /  19.1 °C 55.1 °F /  12.8 °C 29.83 in /  1010 hPa Calm     67 % 0.00 in /  0 mm
23:21 66.3 °F /  19.1 °C 55.0 °F /  12.8 °C 29.83 in /  1010 hPa Calm     67 % 0.00 in /  0 mm
23:27 66.1 °F /  18.9 °C 54.8 °F /  12.7 °C 29.83 in /  1010 hPa SW 0.6 mph /  1 km/h 2.0 mph /  3.2 km/h 67 % 0.00 in /  0 mm
23:32 66.0 °F /  18.9 °C 54.7 °F /  12.6 °C 29.82 in /  1009.7 hPa SW 0.2 mph /  0.3 km/h 1.2 mph /  1.9 km/h 67 % 0.00 in /  0 mm
23:36 66.0 °F /  18.9 °C 54.7 °F /  12.6 °C 29.83 in /  1010 hPa Calm     67 % 0.00 in /  0 mm
23:41 66.0 °F /  18.9 °C 55.1 °F /  12.8 °C 29.83 in /  1010 hPa Calm     68 % 0.00 in /  0 mm
23:46 65.9 °F /  18.8 °C 55.0 °F /  12.8 °C 29.83 in /  1010 hPa Calm     68 % 0.00 in /  0 mm
23:51 65.9 °F /  18.8 °C 55.0 °F /  12.8 °C 29.83 in /  1010 hPa Calm   1.2 mph /  1.9 km/h 68 % 0.00 in /  0 mm
23:56 65.8 °F /  18.8 °C 54.9 °F /  12.7 °C 29.83 in /  1010 hPa Calm   1.2 mph /  1.9 km/h 68 % 0.00 in /  0 mm
Crab Meadow Weather
Compliments of Weather Underground - 2.75 mb

Script developed by  Jim McMurry - jmcmurry@mwt.net Adapted for the template by  Wim van der Kuil - Leuven-Template.eu

Heat Index: The heat index combines air temperature and dew point in an attempt to determine the human-perceived equivalent temperature - how hot it feels. The human body normally cools itself by sweating, which evaporates and carries heat away from the body. However, when the relative humidity is high the evaporation rate is reduced, so heat is removed from the body at a lower rate causing it to retain more heat than it would in dry air.